GW2891 Weather Reports


time (UTC)temp
C
wind
direction
speed
KPH
gust
KPH
rain 1hr
cm
rain 24hr
cm
rain mn
cm
humidity
%
barometer
mb
20260509064548 10 207 0.0 0.0 0.00 0.00 0.00 95 1005.5
20260509063102 10 215 0.0 0.0 0.00 0.00 0.00 94 1005.7
20260509061537 10 217 0.0 0.0 0.00 0.00 0.00 94 1005.9
20260509060042 10 217 0.0 0.0 0.00 0.00 0.00 94 1006.0
20260509054505 10 213 0.0 0.0 0.00 0.00 0.00 94 1006.0
20260509053051 10 215 0.0 0.0 0.00 0.00 0.00 94 1006.1
20260509051511 10 219 0.0 0.0 0.00 0.00 0.00 93 1006.2
20260509050032 10 219 0.0 0.0 0.00 0.00 0.00 93 1006.2
20260509044600 10 219 0.0 0.0 0.00 0.00 0.00 93 1006.2
20260509043024 10 219 0.0 0.0 0.00 0.00 0.03 92 1006.3
20260509041545 10 219 0.0 0.0 0.00 0.00 0.03 92 1006.4
20260509040014 11 219 0.0 0.0 0.00 0.00 0.03 91 1006.5
20260509034537 11 219 0.0 0.0 0.00 0.00 0.03 91 1006.6
20260509033057 11 220 0.0 0.0 0.00 0.00 0.03 90 1006.7
20260509031524 11 220 0.0 0.0 0.00 0.00 0.03 90 1006.8
20260509030043 11 220 0.0 0.0 0.00 0.00 0.03 89 1006.9
20260509024507 12 220 0.0 0.0 0.00 0.00 0.03 88 1007.1
20260509023039 12 220 0.0 0.0 0.00 0.00 0.03 88 1006.9
20260509021558 12 246 0.0 0.0 0.00 0.00 0.03 87 1006.8
20260509020035 12 217 0.0 0.0 0.00 0.00 0.03 87 1006.9
20260509014551 13 262 0.0 0.0 0.00 0.00 0.03 87 1006.9
20260509013016 13 259 0.0 0.0 0.00 0.00 0.03 86 1006.8
20260509011541 13 194 0.0 0.0 0.00 0.00 0.03 86 1006.7
20260509010001 13 196 0.0 0.0 0.00 0.00 0.03 85 1006.4
20260509004532 13 273 0.0 0.0 0.00 0.00 0.03 84 1006.4
20260509003052 13 263 0.0 0.0 0.00 0.00 0.03 84 1006.4
20260509001510 14 259 0.0 0.0 0.00 0.00 0.03 83 1006.4
20260509000038 15 199 0.0 0.0 0.00 0.00 0.03 83 1006.3
20260508234507 15 282 0.0 0.0 0.00 0.00 0.03 82 1006.4
20260508233025 15 271 1.6 0.0 0.00 0.00 0.03 81 1006.5
20260508231616 15 200 4.8 0.0 0.00 0.00 0.03 81 1006.5
20260508230002 15 215 4.8 0.0 0.00 0.00 0.03 81 1006.5
20260508224527 15 254 8.0 0.0 0.00 0.00 0.03 79 1006.7
20260508223050 15 274 8.0 0.0 0.00 0.00 0.03 78 1006.6
20260508221559 15 286 11.3 0.0 0.00 0.00 0.03 78 1006.6
20260508220017 15 222 6.4 0.0 0.00 0.00 0.03 79 1006.6
20260508214614 15 280 6.4 0.0 0.00 0.00 0.03 80 1006.7
20260508213012 15 265 8.0 0.0 0.00 0.00 0.03 78 1006.8
20260508211539 15 284 6.4 0.0 0.00 0.00 0.03 78 1006.9
20260508204525 15 182 0.0 0.0 0.00 0.00 0.03 76 1007.0
20260508203056 15 209 0.0 0.0 0.00 0.00 0.03 75 1007.3
20260508201516 16 200 0.0 0.0 0.00 0.00 0.03 73 1007.6
20260508200043 16 185 0.0 0.0 0.00 0.00 0.03 73 1007.7
20260508194502 15 254 0.0 0.0 0.00 0.00 0.03 76 1007.9
20260508193039 15 175 0.0 0.0 0.00 0.00 0.03 77 1008.1
20260508191555 14 259 0.0 0.0 0.00 0.00 0.03 80 1008.3
20260508190009 13 188 0.0 0.0 0.00 0.00 0.03 83 1008.8
20260508184528 13 202 0.0 0.0 0.00 0.00 0.03 85 1009.1
20260508183048 12 189 0.0 0.0 0.00 0.00 0.03 85 1009.3
20260508181516 12 223 0.0 0.0 0.00 0.00 0.03 85 1009.3
20260508180033 12 267 0.0 0.0 0.00 0.00 0.03 85 1009.5
20260508174605 12 97 0.0 0.0 0.00 0.00 0.03 85 1009.6
20260508173020 12 237 0.0 0.0 0.00 0.00 0.03 86 1009.9
20260508171549 12 241 0.0 0.0 0.00 0.00 0.03 85 1010.1
20260508170013 12 256 0.0 0.0 0.00 0.00 0.03 85 1010.4
20260508164527 12 148 0.0 0.0 0.00 0.00 0.00 85 1010.5
20260508163039 12 237 0.0 0.0 0.00 0.00 0.00 86 1010.7
20260508161504 12 201 0.0 0.0 0.00 0.00 0.00 85 1010.9
20260508160032 12 207 0.0 0.0 0.00 0.00 0.00 86 1011.0
20260508154502 12 215 0.0 0.0 0.00 0.00 0.00 87 1010.8
20260508153019 12 201 0.0 0.0 0.00 0.00 0.00 88 1010.7
20260508151539 11 219 0.0 0.0 0.00 0.00 0.00 90 1010.7
20260508150015 11 267 0.0 0.0 0.00 0.00 0.00 91 1010.9
20260508144542 11 195 0.0 0.0 0.00 0.00 0.00 92 1010.8
20260508143010 10 203 0.0 0.0 0.00 0.00 0.00 92 1011.0
20260508141536 10 259 0.0 0.0 0.00 0.00 0.00 92 1011.2
20260508140103 10 255 0.0 0.0 0.00 0.00 0.00 91 1011.7
20260508134512 10 252 0.0 0.0 0.00 0.00 0.00 90 1011.5
20260508133042 10 269 0.0 0.0 0.00 0.00 0.00 90 1011.4
20260508131504 9 257 0.0 0.0 0.00 0.00 0.00 90 1011.2
20260508130022 9 246 0.0 0.0 0.00 0.00 0.00 90 1011.4
20260508124542 9 267 0.0 0.0 0.00 0.00 0.00 90 1011.2
20260508123100 8 261 0.0 0.0 0.00 0.00 0.00 90 1011.2
20260508121524 8 265 1.6 0.0 0.00 0.00 0.00 91 1011.3
20260508120044 8 263 0.0 0.0 0.00 0.00 0.00 91 1011.0
20260508114511 7 250 0.0 0.0 0.00 0.00 0.00 92 1010.9
20260508113042 7 242 0.0 0.0 0.00 0.00 0.00 93 1010.9
20260508111508 7 242 0.0 0.0 0.00 0.00 0.00 92 1010.9
20260508110036 6 242 0.0 0.0 0.00 0.00 0.00 91 1010.8
20260508104504 7 242 0.0 0.0 0.00 0.00 0.00 91 1010.8
20260508103024 7 261 0.0 0.0 0.00 0.00 0.00 91 1010.6
20260508101547 7 259 0.0 0.0 0.00 0.00 0.00 91 1010.6
20260508100014 7 267 0.0 0.0 0.00 0.00 0.00 91 1010.4
20260508094531 7 272 0.0 0.0 0.00 0.00 0.00 91 1010.6
20260508093056 7 250 0.0 0.0 0.00 0.00 0.00 90 1010.7
20260508091516 7 236 0.0 0.0 0.00 0.00 0.00 91 1010.8
20260508090033 7 270 0.0 0.0 0.00 0.00 0.00 92 1010.8
20260508084552 7 243 0.0 0.0 0.00 0.00 0.00 92 1010.7
20260508083011 6 254 1.6 0.0 0.00 0.00 0.00 92 1010.8
20260508081543 7 260 3.2 0.0 0.00 0.00 0.00 92 1010.8
20260508080048 6 257 1.6 0.0 0.00 0.00 0.00 93 1010.9
20260508074510 6 254 1.6 0.0 0.00 0.00 0.00 93 1010.8
20260508073038 6 254 3.2 0.0 0.00 0.00 0.00 93 1010.8
20260508071555 6 252 3.2 0.0 0.00 0.00 0.00 94 1010.7
20260508070008 6 209 3.2 0.0 0.00 0.00 0.00 94 1010.7